This is the latest recevied weather packets stored in our database for station/object AK4NG. If no packets are shown the sender has not sent any weather packets the latest 10 day(s).
| Time | Temp. | Humidity | Pressure | Rain* | Wind** | Luminosity | Snow |
|---|---|---|---|---|---|---|---|
| 1777844774 | 22.78° C | 34% | 1018.7 hPa | 0 mm | - | 386 W/m² | - |
| 1777844469 | 23.33° C | 30% | 1018.7 hPa | 0 mm | - | 406 W/m² | - |
| 1777844168 | 22.78° C | 33% | 1018.7 hPa | 0 mm | - | 427 W/m² | - |
| 1777843864 | 22.78° C | 32% | 1018.8 hPa | 0 mm | - | 445 W/m² | - |
| 1777843561 | 22.78° C | 29% | 1018.8 hPa | 0 mm | - | 465 W/m² | - |
| 1777843259 | 23.33° C | 30% | 1018.8 hPa | 0 mm | - | 486 W/m² | - |
| 1777842956 | 23.89° C | 30% | 1018.7 hPa | 0 mm | - | 503 W/m² | - |
| 1777842651 | 23.33° C | 31% | 1018.9 hPa | 0 mm | - | 520 W/m² | - |
| 1777842348 | 23.33° C | 31% | 1019 hPa | 0 mm | - | 538 W/m² | - |
| 1777842044 | 22.78° C | 31% | 1018.9 hPa | 0 mm | - | 557 W/m² | - |
| 1777841741 | 22.78° C | 31% | 1018.9 hPa | 0 mm | - | 579 W/m² | - |
| 1777841437 | 23.33° C | 30% | 1019.1 hPa | 0 mm | - | 598 W/m² | - |
| 1777841134 | 23.33° C | 32% | 1019 hPa | 0 mm | - | 611 W/m² | - |
| 1777840831 | 22.78° C | 30% | 1019.2 hPa | 0 mm | - | 629 W/m² | - |
| 1777840529 | 23.33° C | 29% | 1019.5 hPa | 0 mm | - | 646 W/m² | - |
| 1777840226 | 22.78° C | 31% | 1019.6 hPa | 0 mm | - | 662 W/m² | - |
| 1777839924 | 22.78° C | 30% | 1019.7 hPa | 0 mm | - | 679 W/m² | - |
| 1777839621 | 23.33° C | 31% | 1019.8 hPa | 0 mm | - | 698 W/m² | - |
| 1777839319 | 23.33° C | 30% | 1019.7 hPa | 0 mm | - | 708 W/m² | - |
| 1777839016 | 23.33° C | 31% | 1019.8 hPa | 0 mm | - | 721 W/m² | - |
| 1777838712 | 23.33° C | 32% | 1019.7 hPa | 0 mm | - | 737 W/m² | - |
| 1777838409 | 22.78° C | 31% | 1020 hPa | 0 mm | - | 745 W/m² | - |
| 1777838106 | 23.33° C | 33% | 1020.1 hPa | 0 mm | - | 761 W/m² | - |
| 1777837803 | 23.33° C | 32% | 1020.2 hPa | 0 mm | - | 777 W/m² | - |
| 1777837500 | 22.78° C | 36% | 1020.2 hPa | 0 mm | - | 784 W/m² | - |
* Rain latest hour (hover to see other rain measurements)
** Current wind speed in m/s (hover to see current wind gust speed)